| time (UTC) | temp F | wind direction | speed MPH | gust MPH | rain 1hr in | rain 24hr in | rain mn in | humidity % | barometer mb |
| 20260504151007 | 65 | 360 | 12.0 | 26.0 | 0.00 | 0.00 | 0.00 | 31 | 1012.6 |
| 20260504150505 | 65 | 360 | 10.0 | 29.0 | 0.00 | 0.00 | 0.00 | 32 | 1012.6 |
| 20260504141056 | 62 | 360 | 10.0 | 24.0 | 0.00 | 0.00 | 0.00 | 35 | 1012.9 |
| 20260504140555 | 62 | 360 | 9.0 | 24.0 | 0.00 | 0.00 | 0.00 | 35 | 1013.0 |
| 20260504130542 | 59 | 212 | 5.0 | 15.0 | 0.00 | 0.00 | 0.00 | 41 | 1013.3 |
| 20260504110507 | 39 | 65 | 1.0 | 6.0 | 0.00 | 0.00 | 0.00 | 77 | 1013.9 |
| 20260504100555 | 37 | 360 | 0.0 | 3.0 | 0.00 | 0.00 | 0.00 | 77 | 1013.5 |
| 20260504081547 | 38 | 249 | 0.0 | 2.0 | 0.00 | 0.00 | 0.00 | 76 | 1013.2 |
| 20260504081047 | 38 | 248 | 0.0 | 2.0 | 0.00 | 0.00 | 0.00 | 75 | 1013.2 |
| 20260504080546 | 38 | 248 | 0.0 | 3.0 | 0.00 | 0.00 | 0.00 | 75 | 1013.2 |
| 20260504050534 | 37 | 246 | 0.0 | 3.0 | 0.00 | 0.00 | 0.00 | 71 | 1013.4 |
| 20260504045530 | 37 | 246 | 2.0 | 3.0 | 0.00 | 0.00 | 0.00 | 71 | 1013.5 |
| 20260504045029 | 37 | 246 | 1.0 | 2.0 | 0.00 | 0.00 | 0.00 | 70 | 1013.6 |
| 20260504044528 | 38 | 246 | 0.0 | 0.0 | 0.00 | 0.00 | 0.00 | 70 | 1013.6 |
| 20260504044027 | 38 | 246 | 0.0 | 0.0 | 0.00 | 0.00 | 0.00 | 69 | 1013.7 |
| 20260504043527 | 38 | 246 | 0.0 | 0.0 | 0.00 | 0.00 | 0.00 | 69 | 1013.6 |
| 20260504043029 | 38 | 246 | 0.0 | 0.0 | 0.00 | 0.00 | 0.00 | 68 | 1013.6 |
| 20260504042525 | 38 | 246 | 0.0 | 0.0 | 0.00 | 0.00 | 0.00 | 68 | 1013.6 |
| 20260504042024 | 38 | 246 | 0.0 | 2.0 | 0.00 | 0.00 | 0.00 | 67 | 1013.6 |
| 20260504041532 | 39 | 246 | 0.0 | 2.0 | 0.00 | 0.00 | 0.00 | 67 | 1013.7 |
| 20260504041023 | 39 | 246 | 0.0 | 1.0 | 0.00 | 0.00 | 0.00 | 66 | 1013.6 |
| 20260504040525 | 39 | 246 | 0.0 | 1.0 | 0.00 | 0.00 | 0.00 | 66 | 1013.4 |
| 20260504040022 | 39 | 246 | 0.0 | 2.0 | 0.00 | 0.00 | 0.00 | 66 | 1013.5 |
| 20260504035522 | 39 | 246 | 1.0 | 2.0 | 0.00 | 0.00 | 0.00 | 65 | 1013.5 |
| 20260504035022 | 40 | 246 | 0.0 | 2.0 | 0.00 | 0.00 | 0.00 | 64 | 1013.5 |
| 20260504034521 | 40 | 246 | 0.0 | 0.0 | 0.00 | 0.00 | 0.00 | 64 | 1013.5 |
| 20260504034025 | 40 | 246 | 0.0 | 0.0 | 0.00 | 0.00 | 0.00 | 63 | 1013.4 |
| 20260504033520 | 40 | 246 | 0.0 | 2.0 | 0.00 | 0.00 | 0.00 | 63 | 1013.5 |
| 20260504033021 | 41 | 246 | 0.0 | 3.0 | 0.00 | 0.00 | 0.00 | 62 | 1013.3 |
| 20260504032522 | 41 | 247 | 1.0 | 3.0 | 0.00 | 0.00 | 0.00 | 62 | 1013.3 |
| 20260504032021 | 41 | 248 | 0.0 | 2.0 | 0.00 | 0.00 | 0.00 | 61 | 1013.3 |
| 20260504031521 | 41 | 360 | 1.0 | 2.0 | 0.00 | 0.00 | 0.00 | 60 | 1013.3 |
| 20260504031020 | 41 | 360 | 0.0 | 2.0 | 0.00 | 0.00 | 0.00 | 60 | 1013.2 |
| 20260504030520 | 41 | 360 | 1.0 | 2.0 | 0.00 | 0.00 | 0.00 | 59 | 1013.1 |
| 20260504030020 | 42 | 360 | 1.0 | 3.0 | 0.00 | 0.00 | 0.00 | 59 | 1013.1 |
| 20260504025520 | 42 | 360 | 1.0 | 4.0 | 0.00 | 0.00 | 0.00 | 58 | 1013.2 |
| 20260504025020 | 42 | 360 | 2.0 | 4.0 | 0.00 | 0.00 | 0.00 | 58 | 1013.2 |
| 20260504024521 | 42 | 360 | 0.0 | 1.0 | 0.00 | 0.00 | 0.00 | 57 | 1013.3 |
| 20260504024018 | 42 | 360 | 0.0 | 1.0 | 0.00 | 0.00 | 0.00 | 56 | 1013.3 |
| 20260504023519 | 43 | 360 | 0.0 | 1.0 | 0.00 | 0.00 | 0.00 | 56 | 1013.4 |
| 20260504023019 | 43 | 360 | 0.0 | 2.0 | 0.00 | 0.00 | 0.00 | 55 | 1013.3 |
| 20260504022521 | 43 | 360 | 0.0 | 2.0 | 0.00 | 0.00 | 0.00 | 55 | 1013.2 |
| 20260504022019 | 43 | 360 | 0.0 | 3.0 | 0.00 | 0.00 | 0.00 | 55 | 1013.2 |
| 20260504021518 | 43 | 360 | 1.0 | 3.0 | 0.00 | 0.00 | 0.00 | 55 | 1013.2 |
| 20260504021018 | 44 | 360 | 1.0 | 2.0 | 0.00 | 0.00 | 0.00 | 54 | 1013.1 |
| 20260504020518 | 44 | 360 | 1.0 | 2.0 | 0.00 | 0.00 | 0.00 | 53 | 1013.1 |
| 20260504020020 | 44 | 360 | 0.0 | 3.0 | 0.00 | 0.00 | 0.00 | 52 | 1013.0 |
| 20260504015518 | 45 | 360 | 1.0 | 4.0 | 0.00 | 0.00 | 0.00 | 52 | 1013.0 |
| 20260504015018 | 45 | 360 | 1.0 | 4.0 | 0.00 | 0.00 | 0.00 | 50 | 1012.9 |
| 20260504014524 | 45 | 360 | 2.0 | 4.0 | 0.00 | 0.00 | 0.00 | 50 | 1012.8 |
| 20260504014016 | 46 | 360 | 1.0 | 3.0 | 0.00 | 0.00 | 0.00 | 49 | 1012.8 |
| 20260504013516 | 46 | 360 | 1.0 | 3.0 | 0.00 | 0.00 | 0.00 | 48 | 1012.7 |
| 20260504013016 | 47 | 360 | 1.0 | 3.0 | 0.00 | 0.00 | 0.00 | 46 | 1012.7 |
| 20260504012516 | 47 | 360 | 1.0 | 4.0 | 0.00 | 0.00 | 0.00 | 44 | 1012.7 |
| 20260504012015 | 48 | 360 | 1.0 | 4.0 | 0.00 | 0.00 | 0.00 | 42 | 1012.7 |
| 20260504011515 | 48 | 360 | 1.0 | 4.0 | 0.00 | 0.00 | 0.00 | 41 | 1012.7 |
| 20260504011015 | 49 | 360 | 1.0 | 4.0 | 0.00 | 0.00 | 0.00 | 41 | 1012.7 |
| 20260504010515 | 49 | 360 | 1.0 | 4.0 | 0.00 | 0.00 | 0.00 | 40 | 1012.5 |
| 20260504010015 | 50 | 360 | 1.0 | 4.0 | 0.00 | 0.00 | 0.00 | 39 | 1012.3 |
| 20260504005515 | 50 | 360 | 0.0 | 4.0 | 0.00 | 0.00 | 0.00 | 38 | 1012.4 |
| 20260504005015 | 50 | 360 | 2.0 | 4.0 | 0.00 | 0.00 | 0.00 | 37 | 1012.3 |
| 20260504004519 | 51 | 360 | 1.0 | 4.0 | 0.00 | 0.00 | 0.00 | 36 | 1012.3 |
| 20260504004014 | 51 | 360 | 1.0 | 3.0 | 0.00 | 0.00 | 0.00 | 35 | 1012.1 |
| 20260504003514 | 51 | 360 | 1.0 | 3.0 | 0.00 | 0.00 | 0.00 | 34 | 1012.2 |
| 20260504003013 | 52 | 360 | 1.0 | 4.0 | 0.00 | 0.00 | 0.00 | 34 | 1012.1 |
| 20260504002514 | 52 | 360 | 2.0 | 4.0 | 0.00 | 0.00 | 0.00 | 33 | 1011.9 |
| 20260504002013 | 52 | 360 | 3.0 | 6.0 | 0.00 | 0.00 | 0.00 | 32 | 1011.9 |
| 20260504001513 | 53 | 360 | 2.0 | 6.0 | 0.00 | 0.00 | 0.00 | 32 | 1011.8 |
| 20260504001013 | 53 | 360 | 2.0 | 8.0 | 0.00 | 0.00 | 0.00 | 32 | 1011.7 |
| 20260504000513 | 53 | 360 | 3.0 | 8.0 | 0.00 | 0.00 | 0.00 | 31 | 1011.6 |
| 20260504000013 | 53 | 360 | 2.0 | 9.0 | 0.00 | 0.00 | 0.00 | 31 | 1011.5 |
| 20260503235515 | 53 | 360 | 3.0 | 10.0 | 0.00 | 0.00 | 0.00 | 31 | 1011.5 |
| 20260503235014 | 53 | 360 | 2.0 | 14.0 | 0.00 | 0.00 | 0.00 | 30 | 1011.4 |
| 20260503234512 | 53 | 360 | 7.0 | 14.0 | 0.00 | 0.00 | 0.00 | 30 | 1011.4 |
| 20260503234012 | 54 | 360 | 6.0 | 14.0 | 0.00 | 0.00 | 0.00 | 30 | 1011.3 |
| 20260503233512 | 54 | 360 | 6.0 | 16.0 | 0.00 | 0.00 | 0.00 | 30 | 1011.2 |
| 20260503233016 | 54 | 360 | 5.0 | 16.0 | 0.00 | 0.00 | 0.00 | 29 | 1011.3 |
| 20260503232511 | 54 | 360 | 5.0 | 16.0 | 0.00 | 0.00 | 0.00 | 29 | 1011.2 |
| 20260503232011 | 54 | 360 | 6.0 | 16.0 | 0.00 | 0.00 | 0.00 | 29 | 1011.1 |
| 20260503231511 | 55 | 360 | 3.0 | 15.0 | 0.00 | 0.00 | 0.00 | 29 | 1011.1 |
| 20260503231011 | 55 | 360 | 5.0 | 17.0 | 0.00 | 0.00 | 0.00 | 29 | 1011.1 |
| 20260503230512 | 55 | 360 | 5.0 | 17.0 | 0.00 | 0.00 | 0.00 | 29 | 1011.1 |
| 20260503230011 | 55 | 360 | 8.0 | 16.0 | 0.00 | 0.00 | 0.00 | 29 | 1011.0 |
| 20260503225510 | 55 | 360 | 7.0 | 19.0 | 0.00 | 0.00 | 0.00 | 29 | 1011.1 |
| 20260503225113 | 55 | 360 | 7.0 | 21.0 | 0.00 | 0.00 | 0.00 | 28 | 1011.1 |
| 20260503224509 | 55 | 360 | 5.0 | 21.0 | 0.00 | 0.00 | 0.00 | 29 | 1011.0 |
| 20260503224009 | 55 | 360 | 8.0 | 15.0 | 0.00 | 0.00 | 0.00 | 29 | 1011.0 |
| 20260503223511 | 55 | 360 | 5.0 | 16.0 | 0.00 | 0.00 | 0.00 | 29 | 1010.9 |
| 20260503223009 | 55 | 360 | 7.0 | 17.0 | 0.00 | 0.00 | 0.00 | 29 | 1010.9 |
| 20260503222509 | 55 | 360 | 8.0 | 18.0 | 0.00 | 0.00 | 0.00 | 29 | 1011.0 |
| 20260503222008 | 55 | 360 | 8.0 | 18.0 | 0.00 | 0.00 | 0.00 | 29 | 1010.9 |
| 20260503221508 | 55 | 360 | 3.0 | 14.0 | 0.00 | 0.00 | 0.00 | 31 | 1010.9 |
| 20260503221007 | 55 | 360 | 7.0 | 18.0 | 0.00 | 0.00 | 0.00 | 31 | 1011.0 |
| 20260503220507 | 55 | 360 | 9.0 | 18.0 | 0.00 | 0.00 | 0.00 | 31 | 1011.1 |
| 20260503220007 | 55 | 360 | 7.0 | 18.0 | 0.00 | 0.00 | 0.00 | 31 | 1010.9 |
| 20260503215507 | 55 | 360 | 5.0 | 17.0 | 0.00 | 0.00 | 0.00 | 33 | 1011.1 |
| 20260503215104 | 55 | 360 | 5.0 | 19.0 | 0.00 | 0.00 | 0.00 | 32 | 1011.0 |
| 20260503214507 | 55 | 360 | 11.0 | 19.0 | 0.00 | 0.00 | 0.00 | 32 | 1011.0 |
| 20260503214002 | 55 | 360 | 10.0 | 18.0 | 0.00 | 0.00 | 0.00 | 32 | 1011.1 |
| 20260503213501 | 54 | 360 | 2.0 | 17.0 | 0.00 | 0.00 | 0.00 | 34 | 1011.0 |
| 20260503213002 | 54 | 360 | 8.0 | 18.0 | 0.00 | 0.00 | 0.00 | 34 | 1011.1 |
| 20260503212502 | 54 | 360 | 10.0 | 20.0 | 0.00 | 0.00 | 0.00 | 34 | 1011.1 |
| 20260503212001 | 54 | 360 | 7.0 | 21.0 | 0.00 | 0.00 | 0.00 | 35 | 1011.1 |
| 20260503211500 | 54 | 360 | 8.0 | 21.0 | 0.00 | 0.00 | 0.00 | 34 | 1011.1 |
| 20260503211001 | 54 | 360 | 7.0 | 18.0 | 0.00 | 0.00 | 0.00 | 34 | 1010.9 |
| 20260503210600 | 54 | 360 | 8.0 | 18.0 | 0.00 | 0.00 | 0.00 | 34 | 1011.1 |
| 20260503210104 | 54 | 360 | 8.0 | 19.0 | 0.00 | 0.00 | 0.00 | 35 | 1011.2 |
| 20260503205600 | 54 | 360 | 8.0 | 19.0 | 0.00 | 0.00 | 0.00 | 35 | 1011.1 |
| 20260503205058 | 54 | 360 | 6.0 | 14.0 | 0.00 | 0.00 | 0.00 | 35 | 1011.0 |
| 20260503204558 | 53 | 360 | 5.0 | 16.0 | 0.00 | 0.00 | 0.00 | 36 | 1011.0 |
| 20260503204058 | 53 | 360 | 7.0 | 20.0 | 0.00 | 0.00 | 0.00 | 36 | 1011.0 |
| 20260503203556 | 53 | 360 | 9.0 | 21.0 | 0.00 | 0.00 | 0.00 | 36 | 1011.2 |
| 20260503203058 | 53 | 360 | 9.0 | 21.0 | 0.00 | 0.00 | 0.00 | 36 | 1011.0 |
| 20260503202556 | 52 | 360 | 10.0 | 18.0 | 0.00 | 0.00 | 0.00 | 36 | 1011.1 |
| 20260503202056 | 52 | 360 | 4.0 | 17.0 | 0.00 | 0.00 | 0.00 | 37 | 1011.0 |
| 20260503201556 | 52 | 360 | 3.0 | 17.0 | 0.00 | 0.00 | 0.00 | 38 | 1011.0 |
| 20260503201056 | 52 | 360 | 8.0 | 20.0 | 0.00 | 0.00 | 0.00 | 37 | 1011.1 |
| 20260503200555 | 52 | 360 | 8.0 | 20.0 | 0.00 | 0.00 | 0.00 | 37 | 1011.1 |
| 20260503200057 | 52 | 360 | 5.0 | 22.0 | 0.00 | 0.00 | 0.00 | 37 | 1011.1 |
| 20260503195558 | 52 | 360 | 11.0 | 22.0 | 0.00 | 0.00 | 0.00 | 37 | 1011.2 |
| 20260503195055 | 52 | 360 | 9.0 | 18.0 | 0.00 | 0.00 | 0.00 | 36 | 1011.2 |
| 20260503194600 | 52 | 360 | 8.0 | 16.0 | 0.00 | 0.00 | 0.00 | 36 | 1011.1 |
| 20260503194057 | 52 | 360 | 8.0 | 16.0 | 0.00 | 0.00 | 0.00 | 36 | 1011.1 |
| 20260503193554 | 52 | 360 | 6.0 | 19.0 | 0.00 | 0.00 | 0.00 | 37 | 1011.2 |
| 20260503193054 | 52 | 360 | 10.0 | 23.0 | 0.00 | 0.00 | 0.00 | 36 | 1011.2 |
| 20260503192553 | 51 | 360 | 9.0 | 23.0 | 0.00 | 0.00 | 0.00 | 37 | 1011.2 |
| 20260503192054 | 52 | 360 | 11.0 | 20.0 | 0.00 | 0.00 | 0.00 | 36 | 1011.1 |
| 20260503191554 | 52 | 360 | 7.0 | 15.0 | 0.00 | 0.00 | 0.00 | 36 | 1011.1 |
| 20260503191054 | 52 | 360 | 3.0 | 15.0 | 0.00 | 0.00 | 0.00 | 37 | 1011.0 |
| 20260503190556 | 52 | 360 | 7.0 | 18.0 | 0.00 | 0.00 | 0.00 | 36 | 1011.0 |
| 20260503190052 | 51 | 360 | 6.0 | 18.0 | 0.00 | 0.00 | 0.00 | 37 | 1011.0 |
| 20260503185552 | 51 | 360 | 9.0 | 18.0 | 0.00 | 0.00 | 0.00 | 36 | 1011.2 |
| 20260503185056 | 51 | 360 | 9.0 | 16.0 | 0.00 | 0.00 | 0.00 | 37 | 1011.2 |
| 20260503184557 | 51 | 360 | 4.0 | 14.0 | 0.00 | 0.00 | 0.00 | 38 | 1011.1 |
| 20260503184053 | 51 | 360 | 7.0 | 17.0 | 0.00 | 0.00 | 0.00 | 37 | 1011.1 |
| 20260503183551 | 51 | 360 | 8.0 | 17.0 | 0.00 | 0.00 | 0.00 | 38 | 1011.2 |
| 20260503183051 | 51 | 360 | 9.0 | 20.0 | 0.00 | 0.00 | 0.00 | 38 | 1011.2 |
| 20260503182550 | 51 | 360 | 7.0 | 24.0 | 0.00 | 0.00 | 0.00 | 38 | 1011.3 |
| 20260503182050 | 51 | 360 | 8.0 | 24.0 | 0.00 | 0.00 | 0.00 | 38 | 1011.1 |
| 20260503181551 | 51 | 360 | 13.0 | 22.0 | 0.00 | 0.00 | 0.00 | 38 | 1011.1 |
| 20260503181050 | 51 | 360 | 7.0 | 18.0 | 0.00 | 0.00 | 0.00 | 37 | 1011.1 |
| 20260503180550 | 52 | 360 | 6.0 | 22.0 | 0.00 | 0.00 | 0.00 | 37 | 1011.0 |
| 20260503180058 | 51 | 360 | 6.0 | 22.0 | 0.00 | 0.00 | 0.00 | 36 | 1010.9 |
| 20260503175549 | 52 | 360 | 9.0 | 22.0 | 0.00 | 0.00 | 0.00 | 36 | 1011.0 |
| 20260503175048 | 52 | 360 | 7.0 | 22.0 | 0.00 | 0.00 | 0.00 | 37 | 1011.0 |
| 20260503174548 | 51 | 360 | 9.0 | 16.0 | 0.00 | 0.00 | 0.00 | 38 | 1011.0 |
| 20260503174048 | 51 | 360 | 7.0 | 15.0 | 0.00 | 0.00 | 0.00 | 39 | 1011.0 |
| 20260503173548 | 51 | 360 | 6.0 | 16.0 | 0.00 | 0.00 | 0.00 | 39 | 1011.1 |
| 20260503173048 | 50 | 360 | 9.0 | 19.0 | 0.00 | 0.00 | 0.00 | 40 | 1011.2 |
| 20260503172547 | 50 | 360 | 8.0 | 19.0 | 0.00 | 0.00 | 0.00 | 41 | 1011.2 |
| 20260503172048 | 49 | 360 | 9.0 | 21.0 | 0.00 | 0.00 | 0.00 | 41 | 1011.3 |
| 20260503171550 | 49 | 360 | 4.0 | 21.0 | 0.00 | 0.00 | 0.00 | 42 | 1011.4 |
| 20260503171047 | 49 | 360 | 7.0 | 19.0 | 0.00 | 0.00 | 0.00 | 43 | 1011.4 |
| 20260503170547 | 49 | 360 | 10.0 | 19.0 | 0.00 | 0.00 | 0.00 | 42 | 1011.4 |